Vertical_Velocity
1 -4 -3 -5 -3 -2 -1 1 0 1 4 -8 1 1 2 3 1 1 0 1 0 1 1 4 1 2 3 0 2 -2 -1 -0 -0 -5 -5 -2 -1 -1 -1 -1 1 -2 -3 -3
-1 -4 -7 -0 1 2 1 1 2 4 0 -14 2 5 2 0 -0 -2 -2 -2 -2 1 3 -1 2 2 -1 1 -1 -3 -3 -2 -5 -3 -3 -2 -1 1 -0 -2 -4 -4 -2 -0
-5 -7 1 1 0 3 -1 -1 -1 -7 3 -0 -5 2 2 2 1 2 2 3 2 -1 -1 -2 -0 5 -6 7 -2 -2 -2 -4 -3 -1 0 0 3 2 0 0 2 -0 -1 -2
-2 -7 2 1 -0 -1 3 -3 -1 -0 -1 -4 1 2 2 1 2 1 3 -2 2 -2 -0 -1 3 3 0 2 -2 0 -1 0 -2 -3 -1 -3 -5 -6 -4 -3 -3 -4 -1 -2
-25 1 2 3 -15 0 -13 2 -1 -2 -0 -5 1 -6 2 1 3 1 1 0 -0 2 -3 -2 3 -2 6 -1 -2 -2 -1 -2 -3 -2 -4 -2 -2 -1 -1 -2 -1 -0 -0 0
-6 2 -3 -9 -2 -1 -3 1 -0 -1 -2 -4 -5 -6 2 -1 -6 3 4 3 -2 1 1 0 -2 3 2 2 -3 -4 -2 -0 0 -1 -3 -3 -4 -3 -3 -2 -2 -2 -1 -3
-0 -5 -1 2 4 1 1 -4 -3 -4 -5 -4 -0 -6 -0 -2 -1 -7 -4 0 -2 1 1 3 -2 -2 4 0 -5 1 -0 -0 -1 -2 -4 -2 -0 -1 0 0 -1 -2 -4 -3
-2 -9 -0 -2 -8 -10 -3 -8 -7 -4 -2 -1 -2 0 4 4 4 0 2 -1 -0 2 2 2 3 11 -2 -0 -1 1 -3 -0 -0 -3 -2 -1 -0 1 1 -1 -1 -1 0 2
-1 -6 0 -1 -1 -7 -8 0 -10 -3 -1 -4 -0 4 4 2 4 5 2 0 -1 1 0 0 2 3 1 -1 -1 -4 0 -1 -3 -2 -1 0 -1 1 -1 -0 -0 -0 2 -0
-3 -3 -3 -5 0 -2 -10 -7 -6 -4 -1 0 0 -1 -2 4 4 3 5 0 0 3 5 -0 7 -3 0 -4 -1 -1 -1 -3 -3 -1 1 0 -1 -0 1 0 -2 -0 1 -1
-2 -6 -12 -1 -1 -7 -0 1 -0 -8 -5 -6 -1 -6 -4 -5 -4 -3 0 -0 -3 -1 -2 7 -3 5 -6 -1 -0 0 -3 -4 -2 -1 0 -1 -1 -0 1 -0 -1 -1 -1 -0
-7 -4 -0 -9 -6 -3 -3 -4 -4 -6 -1 0 -4 -1 -0 -3 -4 -2 1 -1 -3 -1 1 11 0 -2 -2 -1 1 -3 -3 -3 -0 1 0 -1 0 -1 -0 -0 -1 0 -1 -2
-4 -2 -1 -12 -11 1 0 0 -1 -1 -3 -1 -7 -2 2 3 4 4 -3 0 2 0 2 5 2 -2 -0 -1 -2 -3 -1 -2 0 0 -1 0 -1 -2 -1 -0 0 1 -1 -1
-2 -0 -8 -10 -10 -4 1 1 0 -5 -2 -1 -2 4 7 4 0 5 6 3 -1 -0 0 2 -1 -1 -1 -1 -3 -0 -2 -1 -0 -1 -1 -1 -0 -2 -2 -1 -2 -2 -0 -2
-8 -3 -0 -1 -1 1 -2 -1 0 -1 -2 -7 -3 -3 -4 -4 -5 -1 -4 2 -0 1 2 -0 -4 -0 -1 -1 -1 -3 -1 0 0 -1 -0 -1 -0 0 -0 1 -1 0 0 -1
1 -4 -0 0 0 0 0 0 -0 -0 2 -1 -1 4 -4 2 7 4 -0 -2 -1 2 0 -0 1 -2 1 -3 -2 -2 -1 -1 -0 -1 -2 -1 -1 -1 -0 -0 -3 -1 -0 -0
-3 -3 -1 -2 -0 -0 0 -4 -0 -0 -0 -19 -5 -7 -0 8 3 -2 0 -3 -4 -3 -2 -2 -2 -0 -3 -2 -1 -2 -1 -1 -1 -1 -0 -0 -1 -1 -1 -0 -1 -2 -4 1
-2 -2 -2 -1 -2 -3 -17 -0 -8 -10 -1 1 3 4 -6 -9 1 -2 3 -9 -3 -3 -3 -1 -1 -3 -1 -1 -2 -2 0 -3 -1 -1 -2 -2 -1 -0 0 -0 -2 -1 -3 -3
-4 -2 -2 -7 -1 -3 -2 2 -7 -19 4 -2 -5 4 4 6 2 17 1 -2 -11 -6 -1 -1 -1 -2 -2 -3 -0 -1 -1 -1 0 -3 0 -0 -0 0 -1 -3 -4 -3 -3 -3
-1 -4 -10 -1 -3 -4 -10 1 -2 -6 -1 -1 -12 0 -6 1 1 -1 6 -3 1 2 -2 -5 -4 -2 -2 -1 1 -1 -1 -0 -1 0 -0 -1 -1 -0 -2 -2 -2 -0 0 2
-0 -0 -4 1 -1 -4 -2 -2 2 -12 -23 -3 -5 -7 -5 -7 -13 -8 4 11 5 -5 -4 -2 -2 -1 -2 -1 -0 -3 -1 -1 -0 -0 -1 -2 -2 -1 -1 -0 -2 -1 -2 1
-5 -6 -1 -0 -1 -3 -4 9 -8 -10 16 -11 2 0 2 -1 1 -3 2 -3 -3 -5 -4 -1 -2 -2 -0 0 -2 -2 -0 -0 -1 -1 -2 -0 -3 -3 -2 -2 0 0 -2 -5
-5 -12 -12 -11 -12 -3 -8 -2 1 -5 -25 1 -8 6 -3 -7 -0 -3 -4 -3 -2 -5 -4 -2 -3 -1 -0 -0 -0 -0 -1 -2 -0 -1 -1 -1 -1 -0 1 -1 -2 -3 -3 -4
2 -0 -4 -5 -3 1 1 8 -2 -3 -15 2 4 -10 -2 -15 -2 -2 -0 -2 -4 -4 -3 -3 -1 -1 -2 -0 -1 0 -3 -1 -1 -0 -0 0 2 0 -1 -2 -1 -4 -4 -2
-8 -6 -1 2 2 -1 6 9 -4 7 9 1 10 -12 -10 -8 2 -7 -2 -2 -3 -3 -2 -1 -2 -2 -1 -2 0 -1 -2 -2 -0 -1 -0 1 -1 -3 0 -3 -6 -1 1 -1
-3 -5 -5 -7 -7 -7 -4 7 -2 -14 -9 -1 -17 5 11 -7 -10 -0 -1 -1 -6 -4 -3 -1 -1 1 -1 -2 -1 -2 -1 0 1 0 -1 -2 -1 0 -0 1 5 -0 -0 -1
Height
1487 1496 1501 1494 1495 1492 1498 1502 1506 1510 1513 1519 1529 1540 1547 1552 1555 1558 1559 1561 1563 1564 1566 1568 1569 1571 1571 1571 1572 1571 1570 1567 1563 1560 1557 1555 1554 1551 1549 1546 1542 1538 1534 1529
1490 1492 1481 1487 1491 1495 1497 1503 1508 1514 1517 1520 1536 1544 1549 1552 1554 1556 1558 1559 1562 1564 1566 1567 1570 1571 1571 1572 1571 1571 1569 1567 1563 1560 1557 1555 1553 1550 1548 1545 1541 1537 1532 1528
1489 1479 1473 1484 1489 1494 1494 1499 1500 1504 1522 1525 1532 1546 1550 1553 1555 1557 1557 1559 1559 1563 1566 1568 1570 1572 1572 1573 1572 1571 1569 1567 1564 1561 1558 1555 1552 1550 1546 1542 1539 1535 1531 1527
1485 1475 1477 1483 1485 1486 1495 1477 1482 1499 1506 1525 1525 1544 1545 1548 1553 1556 1556 1557 1559 1561 1565 1569 1571 1572 1573 1573 1573 1571 1570 1567 1564 1561 1557 1554 1552 1549 1546 1542 1539 1534 1530 1525
1475 1472 1475 1481 1474 1477 1479 1470 1474 1487 1497 1508 1529 1532 1536 1544 1549 1548 1553 1555 1558 1560 1564 1568 1571 1573 1574 1574 1573 1572 1570 1567 1564 1561 1558 1555 1552 1549 1546 1542 1537 1532 1528 1523
1468 1464 1468 1467 1466 1469 1467 1469 1471 1482 1494 1517 1507 1513 1539 1542 1531 1539 1548 1553 1557 1560 1563 1568 1570 1573 1574 1573 1573 1572 1570 1567 1565 1562 1558 1555 1552 1548 1544 1540 1535 1530 1525 1520
1468 1463 1462 1463 1468 1463 1467 1483 1505 1506 1511 1521 1499 1515 1536 1532 1524 1531 1540 1549 1556 1560 1564 1568 1571 1573 1573 1573 1573 1572 1569 1567 1564 1561 1558 1555 1552 1548 1543 1539 1534 1528 1523 1517
1483 1482 1458 1453 1459 1467 1469 1479 1502 1513 1518 1517 1502 1522 1532 1532 1527 1531 1541 1548 1556 1561 1565 1568 1571 1572 1573 1573 1573 1571 1569 1567 1564 1561 1559 1555 1552 1547 1542 1538 1532 1527 1521 1515
1476 1471 1444 1445 1447 1453 1462 1473 1466 1486 1485 1509 1527 1532 1536 1537 1538 1537 1542 1551 1557 1562 1566 1569 1572 1571 1572 1573 1572 1571 1569 1567 1564 1562 1559 1555 1551 1545 1541 1536 1531 1525 1520 1514
1453 1466 1443 1439 1444 1446 1450 1453 1479 1486 1500 1519 1519 1523 1521 1535 1540 1541 1543 1550 1557 1562 1566 1569 1570 1571 1572 1573 1572 1570 1568 1566 1564 1562 1558 1554 1549 1545 1540 1534 1529 1524 1518 1512
1447 1456 1456 1440 1448 1448 1454 1458 1460 1470 1483 1509 1522 1515 1501 1520 1531 1537 1540 1547 1554 1561 1566 1568 1568 1571 1571 1572 1571 1570 1568 1566 1564 1561 1557 1553 1548 1544 1539 1533 1528 1522 1517 1511
1439 1451 1465 1455 1437 1433 1438 1448 1454 1481 1480 1493 1501 1515 1506 1515 1526 1533 1537 1546 1554 1561 1565 1565 1566 1569 1570 1570 1570 1569 1567 1565 1563 1560 1556 1552 1547 1543 1537 1532 1527 1521 1516 1509
1436 1454 1465 1460 1445 1435 1439 1439 1443 1455 1468 1486 1504 1520 1519 1523 1528 1532 1538 1546 1554 1559 1563 1564 1566 1568 1569 1570 1569 1568 1567 1565 1563 1559 1555 1551 1546 1542 1537 1532 1526 1520 1514 1507
1421 1441 1447 1467 1446 1435 1441 1438 1439 1449 1473 1489 1496 1514 1522 1524 1527 1532 1538 1545 1552 1557 1561 1562 1565 1567 1568 1569 1569 1568 1567 1564 1561 1558 1554 1550 1545 1541 1537 1532 1526 1521 1514 1507
1421 1438 1436 1435 1432 1430 1430 1433 1438 1443 1449 1466 1488 1494 1506 1515 1521 1528 1535 1544 1551 1556 1559 1561 1564 1566 1567 1568 1568 1568 1566 1564 1561 1557 1554 1549 1546 1541 1537 1532 1527 1521 1515 1508
1416 1432 1428 1435 1427 1427 1432 1430 1439 1445 1458 1469 1484 1501 1503 1514 1522 1529 1535 1543 1549 1553 1556 1560 1562 1565 1566 1567 1567 1566 1565 1563 1560 1556 1553 1550 1546 1542 1537 1532 1527 1522 1515 1508
1413 1424 1431 1439 1425 1426 1437 1436 1439 1446 1446 1462 1487 1484 1498 1512 1519 1524 1532 1540 1546 1549 1554 1558 1561 1563 1565 1565 1565 1565 1563 1561 1558 1556 1552 1549 1546 1543 1538 1534 1528 1522 1516 1509
1407 1413 1424 1439 1432 1456 1431 1418 1424 1437 1450 1456 1463 1479 1491 1502 1515 1522 1529 1535 1542 1547 1552 1556 1559 1561 1562 1564 1564 1563 1562 1560 1558 1555 1553 1550 1547 1543 1539 1535 1529 1524 1517 1510
1388 1409 1431 1445 1447 1432 1429 1430 1433 1436 1467 1463 1470 1487 1498 1509 1519 1529 1529 1533 1538 1545 1550 1554 1557 1560 1561 1562 1562 1562 1561 1559 1557 1555 1552 1550 1548 1545 1541 1536 1531 1525 1518 1511
1391 1395 1420 1442 1447 1455 1434 1426 1428 1434 1479 1472 1464 1479 1490 1501 1516 1522 1525 1531 1538 1545 1549 1552 1556 1558 1559 1560 1561 1561 1559 1558 1556 1555 1553 1552 1549 1546 1542 1537 1531 1525 1519 1512
1407 1408 1421 1440 1445 1435 1419 1422 1424 1443 1457 1465 1469 1472 1483 1488 1497 1509 1521 1530 1536 1542 1547 1551 1554 1556 1558 1559 1560 1560 1559 1558 1557 1555 1554 1552 1549 1546 1542 1538 1532 1526 1520 1514
1402 1414 1419 1430 1440 1435 1414 1423 1427 1426 1434 1449 1467 1474 1485 1491 1499 1509 1519 1527 1534 1539 1545 1550 1553 1555 1557 1559 1559 1559 1559 1558 1558 1556 1554 1553 1550 1547 1543 1539 1534 1529 1522 1515
1398 1391 1407 1413 1415 1399 1405 1408 1414 1418 1432 1453 1460 1474 1477 1488 1499 1508 1517 1525 1532 1538 1543 1548 1551 1553 1556 1557 1558 1558 1559 1559 1558 1556 1555 1553 1550 1547 1544 1540 1535 1529 1523 1516
1380 1382 1396 1401 1404 1402 1407 1413 1414 1421 1433 1447 1457 1466 1478 1486 1498 1508 1516 1524 1530 1537 1541 1546 1550 1553 1554 1556 1557 1558 1559 1558 1558 1556 1555 1553 1551 1549 1546 1541 1536 1531 1524 1518
1377 1379 1395 1409 1407 1409 1415 1411 1419 1431 1438 1448 1459 1467 1477 1486 1498 1505 1513 1521 1529 1535 1540 1545 1548 1551 1554 1555 1556 1557 1558 1558 1557 1556 1555 1554 1552 1549 1546 1542 1537 1532 1527 1521
1368 1378 1388 1402 1397 1397 1413 1415 1421 1428 1437 1446 1458 1471 1480 1487 1495 1505 1512 1519 1527 1533 1539 1543 1548 1551 1552 1554 1555 1556 1557 1557 1557 1557 1556 1554 1552 1550 1547 1544 1540 1535 1531 1526